Starlink 4464

operational
NORAD ID: 53669 Int'l Des: 2022-105 Owner: SPXS Country: US Constellation: starlink
LEOCIRCULARRETROGRADESSO

Über Starlink 4464

Beschreibung wird geladen...

Live-Position

3D-Globus wird geladen...

Nächste Überflüge

Höhenverlauf

Altitude vs Time

uPlot chart will show altitude changes over time

Zweizeiliger Elementsatz

1 53669U 22105X 25305.64652242 -.00002798 00000-0 -21348-3 0 9994
2 53669 97.6016 184.8426 0001070 82.1135 278.0210 15.01241895174021
Epoch: 1. Nov. 2025 • Age: 24 hours

Aktueller Status

Höhe 568.1 km
Geschwindigkeit 7.58 km/s
Subsatellitenpunkt 39.24°N, 97.87°W
Startdatum 31. Aug. 2022
Alter 3.1 years
Typ internet

Technische Details

Klassifizierung Payload
Masse 300.00 kg
Trockenmasse 290.00 kg
Gesamtmasse 300.00 kg
Länge 0.20 m
Durchmesser 2.80 m
Spannweite 9.00 m
Form Box + pan
Hersteller SPXS
Bus-Typ Starlink
Phasenstatus In Orbit
Besitzer/Staat SPXS/US

Große Konstellationen

Loading constellations...